STARLINK-31895 (59849 NORAD) Tracking and Keplerian Element Data

This shows tracking and keplerian element data for the satellite.

Feedback or suggestion? Click here.




ElementValue
Catalog59849
NameSTARLINK-31895
Epoch Orbit370
Epoch Day160.16667824
Epoch Year2024
RAAN318.6153
Inclination43.0009
Eccentricity0.0001844
Argument of Perigee284.6228
Mean Anonmoly86.5059
Mean Motion15.6665668
Decay Rate-0.01739462
L11 59849U 24097Q 24160.16667824 -.01739462 00000+0 -18356-1 0 9997
L22 59849 43.0009 318.6153 0001844 284.6228 86.5059 15.66656680 3701



Live tracking and technical data element details for STARLINK-31895 (NORAD 59849). STARLINK-31895 can be tracked NOW for your location showing map with azimuth and elevation plus other details from your city location.







IsCatalogInMostPopularTable: catalog: 59849, numindb: 6
Update: records affected: 1



GetName: 59849 STARLINK-31895

Hit Count: updated at: Tue, 16 Jul 2024 02:53:10 GMT